Location: Mahannah Oil Field
(37.4664°N, 96.6003°W)
Time: 11:14:42
(UTC+00:00)

Altair - Pass Details

Date: 30 January 2021
Orbit: 1501 x 1682 km, 47.2° (Epoch: 24 February)

Event Time Altitude Azimuth Distance (km) Brightness Sun altitude
Exits shadow 12:32:40 14° 287° (WNW) 3,586 8.7 -11.9°
Maximum altitude 12:41:11 49° 358° (N) 2,086 8.1 -10.3°
Drops below altitude 10° 12:50:58 10° 71° (ENE) 3,942 10.6 -8.4°
Sets 12:54:19 0° 77° (ENE) 4,921 11.4 -7.8°
